カタログに戻る

STARLINK-1973

運用中通信VLEO
NORAD 47628·PAYLOAD·🇺🇸 United States

打ち上げ Feb 16, 2021 から Cape Canaveral Space Force Station

Loading…

次のパス (今後24時間)

TLE

最新Source: CelesTrak SupGP

元期: Sep 15, 2026, 01:40 UTC

1 47628C 21012J   26258.06993056  .00000482  00000+0  15497-4 0  2585
2 47628  53.1571 263.6596 0001330  95.6449 336.9627 15.31703820    19

AllMySatでSTARLINK-1973をリアルタイム追跡

Download on the App Store